Time,TemperatureF,DewpointF,PressureIn,WindDirection,WindDirectionDegrees,WindSpeedMPH,WindSpeedGustMPH,Humidity,HourlyPrecipIn,Conditions,Clouds,dailyrainin,SoftwareType,DateUTC
2013-06-13 00:00:00,73.9,46.0,29.29,ENE,57,0.0,0.0,40,0.00,,,-99.99,wx200d/1.3,2013-06-13 04:00:00,
2013-06-13 00:06:00,73.6,50.0,29.29,ENE,58,0.0,0.0,44,0.00,,,-99.99,wx200d/1.3,2013-06-13 04:06:00,
2013-06-13 00:11:00,73.4,50.0,29.29,ENE,58,0.0,0.0,44,0.00,,,-99.99,wx200d/1.3,2013-06-13 04:11:00,
2013-06-13 00:16:00,73.8,50.0,29.29,ENE,58,0.0,0.0,44,0.00,,,-99.99,wx200d/1.3,2013-06-13 04:16:00,
2013-06-13 00:21:00,73.8,50.0,29.29,ENE,58,0.0,0.0,44,0.00,,,-99.99,wx200d/1.3,2013-06-13 04:21:00,
2013-06-13 00:26:00,73.9,50.0,29.29,ESE,107,0.0,0.0,43,0.00,,,-99.99,wx200d/1.3,2013-06-13 04:26:00,
2013-06-13 00:31:00,74.7,46.0,29.29,SSE,165,0.0,0.0,36,0.00,,,-99.99,wx200d/1.3,2013-06-13 04:31:00,
2013-06-13 00:36:00,75.9,43.0,29.29,ESE,112,0.0,0.0,32,0.00,,,-99.99,wx200d/1.3,2013-06-13 04:36:00,
2013-06-13 00:41:00,77.0,45.0,29.26,SE,134,0.0,0.0,31,0.00,,,-99.99,wx200d/1.3,2013-06-13 04:41:00,
2013-06-13 00:46:00,77.4,43.0,29.26,ESE,117,0.0,0.0,30,0.00,,,-99.99,wx200d/1.3,2013-06-13 04:46:00,
2013-06-13 00:51:00,77.4,43.0,29.26,East,96,0.0,0.0,30,0.00,,,-99.99,wx200d/1.3,2013-06-13 04:51:00,
2013-06-13 00:56:00,77.4,43.0,29.26,ESE,123,0.0,0.0,30,0.00,,,-99.99,wx200d/1.3,2013-06-13 04:56:00,
2013-06-13 01:01:00,77.4,43.0,29.26,SSE,152,0.0,0.0,30,0.00,,,-99.99,wx200d/1.3,2013-06-13 05:01:00,
2013-06-13 01:06:00,77.4,45.0,29.26,SSE,167,0.0,0.0,31,0.00,,,-99.99,wx200d/1.3,2013-06-13 05:06:00,
2013-06-13 01:11:00,77.2,43.0,29.26,ESE,114,0.0,0.0,30,0.00,,,-99.99,wx200d/1.3,2013-06-13 05:11:00,
2013-06-13 01:16:00,77.4,43.0,29.26,ESE,116,0.0,0.0,30,0.00,,,-99.99,wx200d/1.3,2013-06-13 05:16:00,
2013-06-13 01:21:00,77.4,43.0,29.23,ESE,105,0.0,0.0,30,0.00,,,-99.99,wx200d/1.3,2013-06-13 05:21:00,
2013-06-13 01:26:00,77.7,43.0,29.23,ENE,78,2.7,7.4,29,0.00,,,-99.99,wx200d/1.3,2013-06-13 05:26:00,
2013-06-13 01:31:00,77.7,43.0,29.23,SE,138,0.0,0.0,29,0.00,,,-99.99,wx200d/1.3,2013-06-13 05:31:00,
2013-06-13 01:36:00,77.7,43.0,29.23,ESE,121,0.0,6.7,29,0.00,,,-99.99,wx200d/1.3,2013-06-13 05:36:00,
2013-06-13 01:41:00,77.7,43.0,29.23,ESE,112,0.0,9.6,29,0.00,,,-99.99,wx200d/1.3,2013-06-13 05:41:00,
2013-06-13 01:46:00,77.7,43.0,29.23,ESE,109,0.0,13.9,29,0.00,,,-99.99,wx200d/1.3,2013-06-13 05:46:00,
2013-06-13 01:51:00,77.7,43.0,29.23,ESE,118,3.6,7.4,29,0.00,,,-99.99,wx200d/1.3,2013-06-13 05:51:00,
2013-06-13 01:56:00,77.7,43.0,29.23,SSE,159,0.0,9.2,29,0.00,,,-99.99,wx200d/1.3,2013-06-13 05:56:00,
2013-06-13 02:01:00,77.5,43.0,29.23,SE,131,2.7,8.7,29,0.00,,,-99.99,wx200d/1.3,2013-06-13 06:01:00,
2013-06-13 02:06:00,77.4,43.0,29.23,ESE,117,0.0,8.7,30,0.00,,,-99.99,wx200d/1.3,2013-06-13 06:06:00,
2013-06-13 02:11:00,77.2,43.0,29.23,SE,138,3.1,9.2,30,0.00,,,-99.99,wx200d/1.3,2013-06-13 06:11:00,
2013-06-13 02:16:00,77.2,45.0,29.23,SE,138,0.0,10.1,31,0.00,,,-99.99,wx200d/1.3,2013-06-13 06:16:00,
2013-06-13 02:21:00,77.0,45.0,29.23,SE,130,4.5,10.5,31,0.00,,,-99.99,wx200d/1.3,2013-06-13 06:21:00,
2013-06-13 02:26:00,77.0,45.0,29.23,SE,131,0.0,10.5,31,0.00,,,-99.99,wx200d/1.3,2013-06-13 06:26:00,
2013-06-13 02:31:00,76.8,45.0,29.23,ESE,110,0.0,6.3,32,0.00,,,-99.99,wx200d/1.3,2013-06-13 06:31:00,
2013-06-13 02:36:00,76.8,46.0,29.23,East,85,0.0,9.6,33,0.00,,,-99.99,wx200d/1.3,2013-06-13 06:36:00,
2013-06-13 02:42:00,76.5,46.0,29.23,ESE,102,0.0,8.3,34,0.00,,,-99.99,wx200d/1.3,2013-06-13 06:42:00,
2013-06-13 02:47:00,76.3,48.0,29.23,ESE,122,6.7,8.7,35,0.00,,,-99.99,wx200d/1.3,2013-06-13 06:47:00,
2013-06-13 02:52:00,76.1,50.0,29.23,ESE,111,6.3,11.2,38,0.00,,,-99.99,wx200d/1.3,2013-06-13 06:52:00,
2013-06-13 02:57:00,75.7,50.0,29.23,ESE,106,7.8,11.0,40,0.00,,,-99.99,wx200d/1.3,2013-06-13 06:57:00,
2013-06-13 03:02:00,75.6,50.0,29.23,ESE,123,7.4,12.5,41,0.00,,,-99.99,wx200d/1.3,2013-06-13 07:02:00,
2013-06-13 03:07:00,75.6,52.0,29.23,SSE,149,7.8,14.3,43,0.00,,,-99.99,wx200d/1.3,2013-06-13 07:07:00,
2013-06-13 03:12:00,75.4,52.0,29.23,ESE,115,5.4,11.6,45,0.00,,,-99.99,wx200d/1.3,2013-06-13 07:12:00,
2013-06-13 03:17:00,74.8,54.0,29.23,ESE,118,7.4,13.0,48,0.00,,,-99.99,wx200d/1.3,2013-06-13 07:17:00,
2013-06-13 03:22:00,74.1,55.0,29.23,SE,128,6.3,10.1,52,0.00,,,-99.99,wx200d/1.3,2013-06-13 07:22:00,
2013-06-13 03:27:00,73.8,57.0,29.23,SE,125,7.8,12.1,57,0.00,,,-99.99,wx200d/1.3,2013-06-13 07:27:00,
2013-06-13 03:32:00,73.4,59.0,29.23,ESE,120,6.7,13.9,60,0.00,,,-99.99,wx200d/1.3,2013-06-13 07:32:00,
2013-06-13 03:37:00,73.2,59.0,29.21,SSE,153,7.4,11.6,60,0.00,,,-99.99,wx200d/1.3,2013-06-13 07:37:00,
2013-06-13 03:42:00,73.0,59.0,29.21,SE,129,8.3,13.9,59,0.00,,,-99.99,wx200d/1.3,2013-06-13 07:42:00,
2013-06-13 03:47:00,72.9,57.0,29.21,SE,131,9.2,12.5,58,0.00,,,-99.99,wx200d/1.3,2013-06-13 07:47:00,
2013-06-13 03:52:00,72.7,59.0,29.21,ESE,121,7.4,11.0,59,0.00,,,-99.99,wx200d/1.3,2013-06-13 07:52:00,
2013-06-13 03:57:00,72.7,59.0,29.21,South,180,6.3,12.1,59,0.00,,,-99.99,wx200d/1.3,2013-06-13 07:57:00,
2013-06-13 04:02:00,72.5,57.0,29.21,ESE,111,7.4,11.0,58,0.00,,,-99.99,wx200d/1.3,2013-06-13 08:02:00,
2013-06-13 04:07:00,72.3,55.0,29.21,ESE,119,7.8,13.0,56,0.00,,,-99.99,wx200d/1.3,2013-06-13 08:07:00,
2013-06-13 04:12:00,72.3,54.0,29.21,SE,141,6.7,14.3,54,0.00,,,-99.99,wx200d/1.3,2013-06-13 08:12:00,
2013-06-13 04:17:00,72.3,54.0,29.21,ESE,106,6.9,11.2,53,0.00,,,-99.99,wx200d/1.3,2013-06-13 08:17:00,
2013-06-13 04:22:00,72.0,54.0,29.18,ESE,105,7.4,11.0,52,0.00,,,-99.99,wx200d/1.3,2013-06-13 08:22:00,
2013-06-13 04:27:00,71.6,52.0,29.18,SE,134,10.1,12.1,51,0.00,,,-99.99,wx200d/1.3,2013-06-13 08:27:00,
2013-06-13 04:32:00,71.6,52.0,29.18,SE,133,7.4,15.9,50,0.00,,,-99.99,wx200d/1.3,2013-06-13 08:32:00,
2013-06-13 04:37:00,71.4,52.0,29.18,ESE,106,7.4,13.0,49,0.00,,,-99.99,wx200d/1.3,2013-06-13 08:37:00,
2013-06-13 04:42:00,71.2,52.0,29.18,ESE,117,8.7,12.5,48,0.00,,,-99.99,wx200d/1.3,2013-06-13 08:42:00,
2013-06-13 04:47:00,71.2,52.0,29.18,East,101,5.8,13.0,48,0.00,,,-99.99,wx200d/1.3,2013-06-13 08:47:00,
2013-06-13 04:52:00,71.4,52.0,29.18,SE,146,5.4,14.3,48,0.00,,,-99.99,wx200d/1.3,2013-06-13 08:52:00,
2013-06-13 04:57:00,71.4,52.0,29.18,SSE,158,3.1,9.6,48,0.00,,,-99.99,wx200d/1.3,2013-06-13 08:57:00,
2013-06-13 05:02:00,71.4,52.0,29.18,SE,131,4.5,10.1,48,0.00,,,-99.99,wx200d/1.3,2013-06-13 09:02:00,
2013-06-13 05:07:00,71.4,52.0,29.18,ESE,109,6.9,14.3,49,0.00,,,-99.99,wx200d/1.3,2013-06-13 09:07:00,
2013-06-13 05:12:00,71.4,52.0,29.18,ESE,108,3.1,12.5,50,0.00,,,-99.99,wx200d/1.3,2013-06-13 09:12:00,
2013-06-13 05:17:00,71.4,52.0,29.18,ENE,71,0.0,6.9,50,0.00,,,-99.99,wx200d/1.3,2013-06-13 09:17:00,
2013-06-13 05:22:00,71.2,52.0,29.18,East,88,0.0,4.9,50,0.00,,,-99.99,wx200d/1.3,2013-06-13 09:22:00,
2013-06-13 05:27:00,71.1,52.0,29.18,SE,125,0.0,5.8,50,0.00,,,-99.99,wx200d/1.3,2013-06-13 09:27:00,
2013-06-13 05:32:00,71.1,52.0,29.18,ENE,59,0.0,5.8,51,0.00,,,-99.99,wx200d/1.3,2013-06-13 09:32:00,
2013-06-13 05:37:00,71.1,52.0,29.18,ESE,107,0.0,5.8,52,0.00,,,-99.99,wx200d/1.3,2013-06-13 09:37:00,
2013-06-13 05:43:00,70.9,54.0,29.18,ENE,72,0.0,6.3,52,0.00,,,-99.99,wx200d/1.3,2013-06-13 09:43:00,
2013-06-13 05:48:00,70.7,54.0,29.18,ESE,105,5.4,7.8,52,0.00,,,-99.99,wx200d/1.3,2013-06-13 09:48:00,
2013-06-13 05:53:00,70.7,54.0,29.18,ESE,118,3.6,7.8,52,0.00,,,-99.99,wx200d/1.3,2013-06-13 09:53:00,
2013-06-13 05:58:00,70.7,54.0,29.18,East,89,0.0,7.8,53,0.00,,,-99.99,wx200d/1.3,2013-06-13 09:58:00,
2013-06-13 06:03:00,70.7,54.0,29.18,ENE,66,0.0,6.3,53,0.00,,,-99.99,wx200d/1.3,2013-06-13 10:03:00,
2013-06-13 06:08:00,70.5,52.0,29.18,ENE,69,0.0,6.7,53,0.00,,,-99.99,wx200d/1.3,2013-06-13 10:08:00,
2013-06-13 06:13:00,70.5,52.0,29.18,ENE,77,3.6,6.7,54,0.00,,,-99.99,wx200d/1.3,2013-06-13 10:13:00,
2013-06-13 06:18:00,70.3,52.0,29.18,East,82,0.0,6.3,54,0.00,,,-99.99,wx200d/1.3,2013-06-13 10:18:00,
2013-06-13 06:23:00,70.3,54.0,29.18,East,88,0.0,6.3,55,0.00,,,-99.99,wx200d/1.3,2013-06-13 10:23:00,
2013-06-13 06:28:00,70.2,54.0,29.18,ENE,76,2.7,4.5,55,0.00,,,-99.99,wx200d/1.3,2013-06-13 10:28:00,
2013-06-13 06:33:00,70.0,54.0,29.18,ESE,111,0.0,6.7,57,0.00,,,-99.99,wx200d/1.3,2013-06-13 10:33:00,
2013-06-13 06:38:00,70.0,54.0,29.18,East,97,2.7,7.8,57,0.00,,,-99.99,wx200d/1.3,2013-06-13 10:38:00,
2013-06-13 06:43:00,70.0,54.0,29.18,ESE,110,5.4,9.2,58,0.00,,,-99.99,wx200d/1.3,2013-06-13 10:43:00,
2013-06-13 06:48:00,70.2,55.0,29.18,SE,127,4.0,8.3,59,0.00,,,-99.99,wx200d/1.3,2013-06-13 10:48:00,
2013-06-13 06:53:00,70.2,54.0,29.15,SE,129,6.3,10.1,58,0.00,,,-99.99,wx200d/1.3,2013-06-13 10:53:00,
2013-06-13 06:58:00,70.0,55.0,29.15,East,97,3.6,10.5,59,0.00,,,-99.99,wx200d/1.3,2013-06-13 10:58:00,
2013-06-13 07:03:00,70.0,55.0,29.15,ESE,123,5.4,9.6,60,0.00,,,-99.99,wx200d/1.3,2013-06-13 11:03:00,
2013-06-13 07:08:00,70.2,55.0,29.15,SSE,151,3.6,12.5,61,0.00,,,-99.99,wx200d/1.3,2013-06-13 11:08:00,
2013-06-13 07:13:00,70.2,55.0,29.15,ESE,117,9.2,11.2,61,0.00,,,-99.99,wx200d/1.3,2013-06-13 11:13:00,
2013-06-13 07:18:00,70.2,55.0,29.15,SE,133,9.2,12.1,62,0.00,,,-99.99,wx200d/1.3,2013-06-13 11:18:00,
2013-06-13 07:23:00,70.2,57.0,29.15,SE,131,7.8,14.3,63,0.00,,,-99.99,wx200d/1.3,2013-06-13 11:23:00,
2013-06-13 07:28:00,70.7,59.0,29.15,ESE,120,10.1,15.4,66,39.29,,,-99.99,wx200d/1.3,2013-06-13 11:28:00,
2013-06-13 07:33:00,71.1,59.0,29.15,ESE,116,8.3,14.8,65,39.29,,,-99.99,wx200d/1.3,2013-06-13 11:33:00,
2013-06-13 07:38:00,71.1,59.0,29.12,ESE,109,12.1,15.9,65,39.29,,,-99.99,wx200d/1.3,2013-06-13 11:38:00,
2013-06-13 07:43:00,70.9,61.0,29.12,SSE,158,12.1,18.1,67,39.29,,,-99.99,wx200d/1.3,2013-06-13 11:43:00,
2013-06-13 07:48:00,70.7,61.0,29.12,ESE,102,10.1,19.0,68,0.28,,,-99.99,wx200d/1.3,2013-06-13 11:48:00,
2013-06-13 07:53:00,70.5,59.0,29.12,SSE,155,11.0,16.3,70,0.67,,,-99.99,wx200d/1.3,2013-06-13 11:53:00,
2013-06-13 07:58:00,70.3,61.0,29.12,East,81,11.0,15.9,71,0.67,,,-99.99,wx200d/1.3,2013-06-13 11:58:00,
2013-06-13 08:03:00,70.3,61.0,29.12,ESE,116,9.2,15.4,72,0.67,,,-99.99,wx200d/1.3,2013-06-13 12:03:00,
2013-06-13 08:08:00,70.3,61.0,29.09,ESE,117,11.2,17.7,74,39.29,,,-99.99,wx200d/1.3,2013-06-13 12:08:00,
2013-06-13 08:13:00,70.3,63.0,29.09,ESE,122,11.0,15.9,76,39.29,,,-99.99,wx200d/1.3,2013-06-13 12:13:00,
2013-06-13 08:18:00,70.5,63.0,29.09,ESE,116,10.5,18.1,77,0.55,,,-99.99,wx200d/1.3,2013-06-13 12:18:00,
2013-06-13 08:23:00,70.5,63.0,29.09,SSE,155,8.3,15.2,77,0.55,,,-99.99,wx200d/1.3,2013-06-13 12:23:00,
2013-06-13 08:28:00,70.5,63.0,29.09,ESE,117,9.2,14.3,78,0.55,,,-99.99,wx200d/1.3,2013-06-13 12:28:00,
2013-06-13 08:33:00,70.7,64.0,29.09,ESE,103,12.1,15.9,78,0.55,,,-99.99,wx200d/1.3,2013-06-13 12:33:00,
2013-06-13 08:38:00,70.7,64.0,29.06,SE,124,11.2,28.0,79,0.24,,,-99.99,wx200d/1.3,2013-06-13 12:38:00,
2013-06-13 08:43:00,70.7,64.0,29.06,SSE,158,4.9,13.4,80,0.87,,,-99.99,wx200d/1.3,2013-06-13 12:43:00,